THY283G LTFM-LGAV

Flight info

Callsign THY283G
Flight time N/A
Altitude 36000
Route IVGU4D IVGUS UY226 BIG UN604 OGSIL OGSI1Q
Aircraft A333/H-SDE3GHIJ2J3J5M1RVWXY/LB2D1

Departure

Time 2026-05-06 10:06
Airport İstanbul Airport (LTFM)

Arrival

Time N/A
Airport Athens Eleftherios Venizelos International Airport (LGAV)
Time Latitude Longitude Altitude Speed Heading
2026-05-06 09:51 41.26379 28.73580 338 ft 0 kts 71°
2026-05-06 09:57 41.26379 28.73579 338 ft 0 kts 71°
2026-05-06 09:57 41.26371 28.73550 338 ft 2 kts 71°
2026-05-06 09:57 41.26368 28.73536 338 ft 1 kts 68°
2026-05-06 09:57 41.26364 28.73524 338 ft 0 kts 59°
2026-05-06 09:58 41.26360 28.73517 338 ft 0 kts 49°
2026-05-06 09:58 41.26357 28.73513 338 ft 0 kts 48°
2026-05-06 09:58 41.26352 28.73504 338 ft 1 kts 47°
2026-05-06 09:58 41.26344 28.73494 338 ft 2 kts 46°
2026-05-06 09:59 41.26342 28.73490 338 ft 0 kts 51°
2026-05-06 09:59 41.26337 28.73483 338 ft 1 kts 62°
2026-05-06 09:59 41.26334 28.73474 338 ft 1 kts 70°
2026-05-06 09:59 41.26331 28.73464 338 ft 1 kts 72°
2026-05-06 10:00 41.26328 28.73449 338 ft 1 kts 82°
2026-05-06 10:00 41.26327 28.73440 338 ft 0 kts 93°
2026-05-06 10:01 41.26337 28.73476 338 ft 0 kts 155°
2026-05-06 10:01 41.26335 28.73465 338 ft 0 kts 155°
2026-05-06 10:03 41.26322 28.73473 338 ft 12 kts 159°
2026-05-06 10:03 41.26269 28.73492 338 ft 2 kts 178°
2026-05-06 10:03 41.26219 28.73443 338 ft 18 kts 248°
2026-05-06 10:04 41.26203 28.73234 338 ft 25 kts 269°
2026-05-06 10:04 41.26203 28.73039 338 ft 20 kts 270°
2026-05-06 10:04 41.26203 28.72881 338 ft 2 kts 270°
2026-05-06 10:04 41.26215 28.72812 338 ft 12 kts 303°
2026-05-06 10:05 41.26286 28.72776 338 ft 0 kts 356°
2026-05-06 10:05 41.26288 28.72775 338 ft 0 kts 356°
2026-05-06 10:05 41.26295 28.72775 338 ft 1 kts 356°
2026-05-06 10:05 41.26350 28.72770 338 ft 32 kts 356°
2026-05-06 10:06 41.26925 28.72762 339 ft 131 kts 359°
2026-05-06 10:06 41.28116 28.72742 482 ft 199 kts 359°
2026-05-06 10:06 41.29466 28.72729 1611 ft 201 kts
2026-05-06 10:06 41.30815 28.72714 2595 ft 197 kts 358°
2026-05-06 10:07 41.32230 28.72674 3237 ft 209 kts 359°
2026-05-06 10:07 41.33673 28.72640 3837 ft 219 kts 359°
2026-05-06 10:07 41.35209 28.72604 3774 ft 221 kts 359°
2026-05-06 10:07 41.36756 28.72213 4448 ft 229 kts 332°
2026-05-06 10:08 41.37838 28.70808 5540 ft 219 kts 297°
2026-05-06 10:08 41.38163 28.68876 6375 ft 219 kts 269°
2026-05-06 10:08 41.38148 28.66862 7169 ft 222 kts 270°
2026-05-06 10:08 41.38135 28.64823 7951 ft 225 kts 269°
2026-05-06 10:09 41.38113 28.62723 8745 ft 228 kts 269°
2026-05-06 10:09 41.38089 28.60632 9520 ft 230 kts 269°
2026-05-06 10:09 41.38056 28.58522 10280 ft 233 kts 265°
2026-05-06 10:09 41.37550 28.56565 10961 ft 237 kts 234°
2026-05-06 10:10 41.36296 28.55213 11698 ft 239 kts 201°
2026-05-06 10:10 41.34678 28.54925 12417 ft 241 kts 175°
2026-05-06 10:10 41.33011 28.55077 13147 ft 243 kts 179°
2026-05-06 10:10 41.31326 28.55138 13853 ft 246 kts 179°
2026-05-06 10:11 41.29611 28.55185 14556 ft 249 kts 179°
2026-05-06 10:11 41.27889 28.55226 15242 ft 251 kts 179°
2026-05-06 10:11 41.26134 28.55265 15928 ft 254 kts 179°
2026-05-06 10:11 41.24386 28.55041 16557 ft 257 kts 199°
2026-05-06 10:12 41.22706 28.54186 17226 ft 259 kts 201°
2026-05-06 10:12 41.21040 28.53357 17875 ft 262 kts 201°
2026-05-06 10:12 41.19309 28.52494 18519 ft 265 kts 201°
2026-05-06 10:12 41.17587 28.51635 19144 ft 267 kts 201°
2026-05-06 10:13 41.15846 28.50769 19759 ft 270 kts 201°
2026-05-06 10:13 41.14090 28.49895 20359 ft 273 kts 201°
2026-05-06 10:13 41.12313 28.49011 20947 ft 275 kts 201°
2026-05-06 10:13 41.10537 28.48128 21516 ft 278 kts 201°
2026-05-06 10:14 41.08728 28.47229 22077 ft 280 kts 201°
2026-05-06 10:14 41.06897 28.46321 22627 ft 283 kts 201°
2026-05-06 10:14 41.04985 28.45617 23150 ft 285 kts 193°
2026-05-06 10:14 41.03069 28.45031 23672 ft 288 kts 194°
2026-05-06 10:15 41.01111 28.44420 24194 ft 290 kts 193°
2026-05-06 10:15 40.99137 28.43804 24711 ft 293 kts 194°
2026-05-06 10:15 40.97173 28.43191 25214 ft 295 kts 194°
2026-05-06 10:15 40.95157 28.42563 25720 ft 297 kts 194°
2026-05-06 10:16 40.93137 28.41933 26216 ft 300 kts 194°
2026-05-06 10:16 40.91120 28.41305 26697 ft 303 kts 194°
2026-05-06 10:16 40.89113 28.40473 27110 ft 306 kts 209°
2026-05-06 10:16 40.87489 28.38712 27497 ft 310 kts 233°
2026-05-06 10:17 40.86505 28.36163 27928 ft 313 kts 257°
2026-05-06 10:17 40.86159 28.33352 28367 ft 316 kts 261°
2026-05-06 10:17 40.85785 28.30490 28801 ft 320 kts 259°
2026-05-06 10:17 40.85382 28.27619 29225 ft 324 kts 259°
2026-05-06 10:18 40.84959 28.24708 29653 ft 328 kts 259°
2026-05-06 10:18 40.84516 28.21718 30085 ft 332 kts 259°
2026-05-06 10:18 40.84074 28.18756 30502 ft 335 kts 259°
2026-05-06 10:18 40.83627 28.15780 30907 ft 339 kts 258°
2026-05-06 10:19 40.83174 28.12775 31303 ft 343 kts 258°
2026-05-06 10:19 40.82721 28.09770 31687 ft 346 kts 258°
2026-05-06 10:19 40.82247 28.06640 32075 ft 350 kts 258°
2026-05-06 10:19 40.81775 28.03525 32452 ft 353 kts 258°
2026-05-06 10:20 40.81292 28.00350 32825 ft 357 kts 258°
2026-05-06 10:20 40.80803 27.97137 33192 ft 361 kts 258°
2026-05-06 10:20 40.80315 27.93938 33546 ft 364 kts 258°
2026-05-06 10:20 40.79818 27.90689 33897 ft 367 kts 258°
2026-05-06 10:21 40.79420 27.87398 34215 ft 371 kts 268°
2026-05-06 10:21 40.79454 27.83983 34546 ft 374 kts 271°
2026-05-06 10:21 40.79491 27.80569 34897 ft 377 kts 271°
2026-05-06 10:21 40.79213 27.77147 35168 ft 381 kts 253°
2026-05-06 10:22 40.78077 27.74013 35455 ft 384 kts 234°
2026-05-06 10:22 40.76240 27.71545 35754 ft 386 kts 215°
2026-05-06 10:22 40.73961 27.69907 36039 ft 388 kts 206°
2026-05-06 10:22 40.71561 27.68286 36229 ft 387 kts 208°
2026-05-06 10:23 40.66754 27.64875 36229 ft 405 kts 209°
2026-05-06 10:23 40.64255 27.63081 36219 ft 417 kts 209°
2026-05-06 10:23 40.61700 27.61244 36220 ft 427 kts 209°
2026-05-06 10:24 40.59068 27.59351 36214 ft 438 kts 209°
2026-05-06 10:24 40.57258 27.58050 36211 ft 445 kts 209°
2026-05-06 10:24 40.51506 27.53754 36204 ft 454 kts 210°
2026-05-06 10:25 40.46207 27.49792 36201 ft 441 kts 210°
2026-05-06 10:25 40.40989 27.45898 36205 ft 442 kts 210°
2026-05-06 10:26 40.35674 27.41939 36204 ft 443 kts 210°
2026-05-06 10:26 40.30310 27.37951 36210 ft 454 kts 210°
2026-05-06 10:27 40.25205 27.33603 36211 ft 468 kts 216°
2026-05-06 10:27 40.19812 27.28594 36204 ft 480 kts 215°
2026-05-06 10:28 40.14304 27.23514 36203 ft 488 kts 215°
2026-05-06 10:28 40.08779 27.18431 36203 ft 487 kts 215°
2026-05-06 10:29 40.03302 27.13402 36204 ft 481 kts 215°
2026-05-06 10:29 39.95954 27.06672 36205 ft 481 kts 215°
2026-05-06 10:30 39.85089 26.96752 36204 ft 482 kts 215°
2026-05-06 10:30 39.74101 26.86762 36203 ft 482 kts 215°
2026-05-06 10:31 39.63166 26.76863 36204 ft 482 kts 215°
2026-05-06 10:31 39.52232 26.67004 36204 ft 482 kts 215°
2026-05-06 10:32 39.41250 26.57140 36204 ft 482 kts 215°
2026-05-06 10:32 39.30201 26.47466 36191 ft 481 kts 210°
2026-05-06 10:33 39.19015 26.38241 36141 ft 481 kts 227°
2026-05-06 10:33 39.15369 26.31254 36240 ft 481 kts 244°
2026-05-06 10:33 39.12477 26.23564 36235 ft 483 kts 239°
2026-05-06 10:34 39.08192 26.17016 36164 ft 481 kts 220°
2026-05-06 10:34 39.02909 26.11755 36264 ft 482 kts 220°
2026-05-06 10:34 38.98565 26.05338 36155 ft 482 kts 239°
2026-05-06 10:34 38.95626 25.97618 36274 ft 482 kts 244°
2026-05-06 10:35 38.91954 25.90502 36145 ft 483 kts 226°
2026-05-06 10:35 38.87199 25.85427 36265 ft 481 kts 216°
2026-05-06 10:35 38.81991 25.79455 36162 ft 483 kts 231°
2026-05-06 10:35 38.78660 25.72174 36247 ft 481 kts 245°
2026-05-06 10:36 38.75538 25.64626 36196 ft 483 kts 234°
2026-05-06 10:36 38.70825 25.58576 36216 ft 481 kts 217°
2026-05-06 10:36 38.61556 25.46505 36186 ft 481 kts 243°
2026-05-06 10:37 38.54847 25.32550 36151 ft 482 kts 223°
2026-05-06 10:37 38.49298 25.27064 36273 ft 482 kts 217°
2026-05-06 10:37 38.44671 25.21016 36145 ft 482 kts 236°
2026-05-06 10:38 38.41578 25.13516 36272 ft 481 kts 244°
2026-05-06 10:38 38.38060 25.06248 36153 ft 483 kts 229°
2026-05-06 10:38 38.32987 25.00697 36257 ft 481 kts 216°
2026-05-06 10:38 38.27926 24.95286 36184 ft 483 kts 228°
2026-05-06 10:39 38.23629 24.87887 36177 ft 480 kts 244°
2026-05-06 10:39 38.22723 24.85428 36241 ft 476 kts 244°
2026-05-06 10:39 38.21923 24.83593 7082 ft 424 kts 238°
2026-05-06 10:39 38.20895 24.81598 11648 ft 247 kts 236°